Location: Pensacola
(30.4142°N, 87.2155°W)
Time: 17:29:05
(UTC-05:00)

NANOSAT C BR1 - Pass Details

Date: 05 August 2024
Orbit: 544 x 550 km, 98.1° (Epoch: 12 September)

Event Time Altitude Azimuth Distance (km) Brightness Sun altitude
Rises 04:36:05 0° 19° (NNE) 2,751 ? -18.9°
Reaches altitude 10° 04:38:17 10° 24° (NNE) 1,853 ? -18.5°
Maximum altitude 04:42:11 49° 100° (E) 726 ? -17.8°
Enters shadow 04:45:48 12° 175° (S) 1,745 ? -17.1°
